| time (UTC) | temp F | wind direction | speed knots | gust knots | rain 1hr in | rain 24hr in | rain mn in | humidity % | barometer mb |
| 20260509190018 | 84 | 327 | 2.6 | 43.4 | 0.00 | 0.00 | 0.00 | 100 | 1009.3 |
| 20260509185017 | 84 | 315 | 2.6 | 41.7 | 0.00 | 0.00 | 0.00 | 100 | 1009.2 |
| 20260509184018 | 84 | 313 | 1.7 | 23.5 | 0.00 | 0.00 | 0.00 | 100 | 1009.1 |
| 20260509183019 | 84 | 322 | 1.7 | 34.8 | 0.00 | 0.00 | 0.00 | 100 | 1009.3 |
| 20260509182101 | 84 | 308 | 1.7 | 35.6 | 0.00 | 0.00 | 0.00 | 100 | 1009.6 |
| 20260509181016 | 84 | 315 | 1.7 | 34.8 | 0.00 | 0.00 | 0.00 | 100 | 1009.8 |
| 20260509180016 | 84 | 319 | 1.7 | 15.6 | 0.00 | 0.00 | 0.00 | 100 | 1009.8 |
| 20260509175017 | 84 | 312 | 2.6 | 37.4 | 0.00 | 0.00 | 0.00 | 100 | 1009.7 |
| 20260509174039 | 84 | 336 | 2.6 | 37.4 | 0.00 | 0.00 | 0.00 | 100 | 1009.6 |
| 20260509173019 | 84 | 329 | 2.6 | 38.2 | 0.00 | 0.00 | 0.00 | 100 | 1009.7 |
| 20260509172019 | 84 | 340 | 1.7 | 31.3 | 0.00 | 0.00 | 0.00 | 100 | 1009.8 |
| 20260509171020 | 85 | 326 | 1.7 | 34.8 | 0.00 | 0.00 | 0.00 | 100 | 1009.9 |
| 20260509170018 | 85 | 316 | 1.7 | 36.5 | 0.00 | 0.00 | 0.00 | 100 | 1010.1 |
| 20260509165016 | 85 | 333 | 1.7 | 35.6 | 0.00 | 0.00 | 0.00 | 100 | 1010.1 |
| 20260509164018 | 85 | 310 | 1.7 | 34.8 | 0.00 | 0.00 | 0.00 | 100 | 1010.1 |
| 20260509163018 | 85 | 336 | 1.7 | 34.8 | 0.00 | 0.00 | 0.00 | 100 | 1010.3 |
| 20260509162041 | 85 | 340 | 1.7 | 26.1 | 0.00 | 0.00 | 0.00 | 100 | 1010.4 |
| 20260509161040 | 86 | 328 | 2.6 | 37.4 | 0.00 | 0.00 | 0.00 | 100 | 1010.6 |
| 20260509160016 | 86 | 318 | 1.7 | 36.5 | 0.00 | 0.00 | 0.00 | 100 | 1010.6 |
| 20260509155017 | 86 | 324 | 2.6 | 40.0 | 0.00 | 0.00 | 0.00 | 100 | 1010.7 |
| 20260509154058 | 86 | 307 | 2.6 | 37.4 | 0.00 | 0.00 | 0.00 | 100 | 1010.6 |
| 20260509153018 | 86 | 330 | 2.6 | 37.4 | 0.00 | 0.00 | 0.00 | 100 | 1010.5 |
| 20260509152142 | 86 | 327 | 1.7 | 35.6 | 0.00 | 0.00 | 0.00 | 100 | 1010.4 |
| 20260509151020 | 87 | 330 | 2.6 | 40.0 | 0.00 | 0.00 | 0.00 | 100 | 1010.3 |
| 20260509150016 | 87 | 324 | 1.7 | 36.5 | 0.00 | 0.00 | 0.00 | 100 | 1010.1 |
| 20260509145018 | 87 | 330 | 2.6 | 36.5 | 0.00 | 0.00 | 0.00 | 100 | 1009.9 |
| 20260509144018 | 87 | 316 | 2.6 | 37.4 | 0.00 | 0.00 | 0.00 | 100 | 1009.8 |
| 20260509143019 | 87 | 331 | 2.6 | 37.4 | 0.00 | 0.00 | 0.00 | 100 | 1009.5 |
| 20260509142019 | 87 | 332 | 2.6 | 38.2 | 0.00 | 0.00 | 0.00 | 100 | 1009.4 |
| 20260509141020 | 87 | 332 | 2.6 | 40.0 | 0.00 | 0.00 | 0.00 | 100 | 1009.4 |
| 20260509140016 | 87 | 332 | 1.7 | 35.6 | 0.00 | 0.00 | 0.00 | 100 | 1009.3 |
| 20260509135018 | 88 | 331 | 2.6 | 37.4 | 0.00 | 0.00 | 0.00 | 100 | 1009.0 |
| 20260509134020 | 88 | 312 | 1.7 | 17.4 | 0.00 | 0.00 | 0.00 | 100 | 1008.7 |
| 20260509133018 | 88 | 314 | 2.6 | 37.4 | 0.00 | 0.00 | 0.00 | 100 | 1008.5 |
| 20260509132059 | 88 | 315 | 2.6 | 37.4 | 0.00 | 0.00 | 0.00 | 100 | 1008.3 |
| 20260509131020 | 88 | 308 | 1.7 | 14.8 | 0.00 | 0.00 | 0.00 | 100 | 1008.1 |
| 20260509130036 | 88 | 337 | 2.6 | 36.5 | 0.00 | 0.00 | 0.00 | 100 | 1007.9 |
| 20260509125016 | 88 | 343 | 2.6 | 40.0 | 0.00 | 0.00 | 0.00 | 100 | 1007.6 |
| 20260509124018 | 88 | 306 | 2.6 | 36.5 | 0.00 | 0.00 | 0.00 | 100 | 1007.6 |
| 20260509123018 | 88 | 330 | 2.6 | 37.4 | 0.00 | 0.00 | 0.00 | 100 | 1007.5 |
| 20260509122040 | 89 | 330 | 1.7 | 33.9 | 0.00 | 0.00 | 0.00 | 100 | 1007.4 |
| 20260509121020 | 89 | 320 | 1.7 | 35.6 | 0.00 | 0.00 | 0.00 | 100 | 1007.3 |
| 20260509120036 | 89 | 287 | 1.7 | 34.8 | 0.00 | 0.00 | 0.00 | 100 | 1007.1 |
| 20260509115016 | 89 | 291 | 1.7 | 34.8 | 0.00 | 0.00 | 0.00 | 100 | 1006.9 |
| 20260509114018 | 89 | 262 | 2.6 | 38.2 | 0.00 | 0.00 | 0.00 | 100 | 1006.8 |
| 20260509113038 | 89 | 315 | 1.7 | 33.9 | 0.00 | 0.00 | 0.00 | 100 | 1006.7 |
| 20260509112019 | 89 | 312 | 2.6 | 37.4 | 0.00 | 0.00 | 0.00 | 100 | 1006.5 |
| 20260509111019 | 90 | 310 | 2.6 | 36.5 | 0.00 | 0.00 | 0.00 | 100 | 1006.5 |
| 20260509110015 | 90 | 287 | 2.6 | 36.5 | 0.00 | 0.00 | 0.00 | 100 | 1006.5 |
| 20260509105016 | 90 | 263 | 2.6 | 40.8 | 0.00 | 0.00 | 0.00 | 100 | 1006.5 |
| 20260509104018 | 90 | 302 | 1.7 | 35.6 | 0.00 | 0.00 | 0.00 | 100 | 1006.5 |
| 20260509103020 | 90 | 271 | 1.7 | 35.6 | 0.00 | 0.00 | 0.00 | 100 | 1006.5 |
| 20260509102019 | 90 | 274 | 2.6 | 37.4 | 0.00 | 0.00 | 0.00 | 100 | 1006.7 |
| 20260509101020 | 90 | 281 | 1.7 | 36.5 | 0.00 | 0.00 | 0.00 | 100 | 1006.7 |
| 20260509100016 | 90 | 284 | 1.7 | 29.5 | 0.00 | 0.00 | 0.00 | 100 | 1006.8 |
| 20260509095016 | 90 | 250 | 2.6 | 37.4 | 0.00 | 0.00 | 0.00 | 100 | 1006.7 |
| 20260509094017 | 90 | 297 | 2.6 | 37.4 | 0.00 | 0.00 | 0.00 | 100 | 1006.8 |
| 20260509093020 | 90 | 284 | 2.6 | 38.2 | 0.00 | 0.00 | 0.00 | 100 | 1007.0 |
| 20260509092019 | 91 | 279 | 2.6 | 40.0 | 0.00 | 0.00 | 0.00 | 100 | 1007.1 |
| 20260509091040 | 91 | 269 | 2.6 | 39.1 | 0.00 | 0.00 | 0.00 | 100 | 1007.3 |
| 20260509090020 | 91 | 275 | 1.7 | 33.9 | 0.00 | 0.00 | 0.00 | 100 | 1007.4 |
| 20260509085016 | 91 | 271 | 1.7 | 36.5 | 0.00 | 0.00 | 0.00 | 100 | 1007.4 |
| 20260509084017 | 91 | 293 | 1.7 | 35.6 | 0.00 | 0.00 | 0.00 | 100 | 1007.4 |
| 20260509083018 | 92 | 281 | 1.7 | 35.6 | 0.00 | 0.00 | 0.00 | 100 | 1007.4 |
| 20260509082019 | 91 | 268 | 2.6 | 39.1 | 0.00 | 0.00 | 0.00 | 100 | 1007.6 |
| 20260509081020 | 91 | 272 | 2.6 | 38.2 | 0.00 | 0.00 | 0.00 | 100 | 1007.6 |
| 20260509080021 | 91 | 290 | 2.6 | 38.2 | 0.00 | 0.00 | 0.00 | 100 | 1007.7 |
| 20260509075016 | 91 | 281 | 1.7 | 34.8 | 0.00 | 0.00 | 0.00 | 100 | 1008.0 |
| 20260509074018 | 91 | 282 | 2.6 | 38.2 | 0.00 | 0.00 | 0.00 | 100 | 1008.1 |
| 20260509073018 | 91 | 272 | 2.6 | 39.1 | 0.00 | 0.00 | 0.00 | 100 | 1008.1 |
| 20260509072020 | 91 | 286 | 2.6 | 36.5 | 0.00 | 0.00 | 0.00 | 100 | 1008.3 |
| 20260509071019 | 91 | 286 | 2.6 | 38.2 | 0.00 | 0.00 | 0.00 | 100 | 1008.4 |
| 20260509070015 | 91 | 271 | 1.7 | 28.7 | 0.00 | 0.00 | 0.00 | 100 | 1008.5 |
| 20260509065036 | 90 | 307 | 1.7 | 35.6 | 0.00 | 0.00 | 0.00 | 100 | 1008.6 |
| 20260509064017 | 90 | 287 | 2.6 | 37.4 | 0.00 | 0.00 | 0.00 | 100 | 1008.7 |
| 20260509063019 | 91 | 271 | 1.7 | 32.2 | 0.00 | 0.00 | 0.00 | 100 | 1008.9 |
| 20260509062039 | 90 | 334 | 1.7 | 34.8 | 0.00 | 0.00 | 0.00 | 100 | 1009.0 |
| 20260509061019 | 92 | 329 | 2.6 | 36.5 | 0.00 | 0.00 | 0.00 | 100 | 1009.2 |
| 20260509060020 | 93 | 302 | 2.6 | 37.4 | 0.00 | 0.00 | 0.00 | 100 | 1009.2 |
| 20260509055017 | 94 | 276 | 2.6 | 40.8 | 0.00 | 0.00 | 0.00 | 100 | 1009.3 |
| 20260509054018 | 94 | 288 | 1.7 | 32.2 | 0.00 | 0.00 | 0.00 | 100 | 1009.5 |
| 20260509053018 | 94 | 268 | 2.6 | 37.4 | 0.00 | 0.00 | 0.00 | 100 | 1009.8 |
| 20260509052019 | 94 | 297 | 2.6 | 37.4 | 0.00 | 0.00 | 0.00 | 100 | 1009.9 |
| 20260509051019 | 93 | 310 | 2.6 | 38.2 | 0.00 | 0.00 | 0.00 | 100 | 1010.1 |
| 20260509050040 | 93 | 315 | 2.6 | 40.0 | 0.00 | 0.00 | 0.00 | 100 | 1010.4 |
| 20260509045039 | 93 | 317 | 2.6 | 37.4 | 0.00 | 0.00 | 0.00 | 100 | 1010.5 |
| 20260509044017 | 92 | 325 | 2.6 | 40.0 | 0.00 | 0.00 | 0.00 | 100 | 1010.6 |
| 20260509043018 | 91 | 276 | 2.6 | 40.0 | 0.00 | 0.00 | 0.00 | 100 | 1010.8 |
| 20260509042039 | 91 | 261 | 2.6 | 36.5 | 0.00 | 0.00 | 0.00 | 100 | 1010.8 |
| 20260509041020 | 91 | 309 | 2.6 | 36.5 | 0.00 | 0.00 | 0.00 | 100 | 1010.9 |
| 20260509040016 | 90 | 318 | 1.7 | 34.8 | 0.00 | 0.00 | 0.00 | 100 | 1011.0 |
| 20260509035017 | 90 | 295 | 1.7 | 28.7 | 0.00 | 0.00 | 0.00 | 100 | 1011.2 |
| 20260509034019 | 90 | 283 | 2.6 | 40.0 | 0.00 | 0.00 | 0.00 | 100 | 1011.3 |
| 20260509033018 | 90 | 300 | 2.6 | 36.5 | 0.00 | 0.00 | 0.00 | 100 | 1011.6 |
| 20260509032019 | 89 | 279 | 2.6 | 40.8 | 0.00 | 0.00 | 0.00 | 100 | 1011.8 |
| 20260509031020 | 89 | 263 | 2.6 | 38.2 | 0.00 | 0.00 | 0.00 | 100 | 1012.0 |
| 20260509030015 | 89 | 289 | 2.6 | 37.4 | 0.00 | 0.00 | 0.00 | 100 | 1012.2 |
| 20260509025018 | 88 | 311 | 2.6 | 37.4 | 0.00 | 0.00 | 0.00 | 100 | 1012.3 |
| 20260509024018 | 88 | 351 | 2.6 | 41.7 | 0.00 | 0.00 | 0.00 | 100 | 1012.4 |
| 20260509023019 | 88 | 11 | 1.7 | 17.4 | 0.00 | 0.00 | 0.00 | 100 | 1012.4 |
| 20260509022019 | 87 | 17 | 1.7 | 36.5 | 0.00 | 0.00 | 0.00 | 100 | 1012.5 |
| 20260509021019 | 87 | 20 | 2.6 | 37.4 | 0.00 | 0.00 | 0.00 | 100 | 1012.4 |
| 20260509020021 | 86 | 25 | 2.6 | 37.4 | 0.00 | 0.00 | 0.00 | 100 | 1012.3 |
| 20260509015016 | 85 | 17 | 1.7 | 36.5 | 0.00 | 0.00 | 0.00 | 100 | 1012.3 |
| 20260509014017 | 85 | 329 | 2.6 | 37.4 | 0.00 | 0.00 | 0.00 | 100 | 1012.2 |
| 20260509013018 | 84 | 264 | 2.6 | 38.2 | 0.00 | 0.00 | 0.00 | 100 | 1012.0 |
| 20260509012019 | 83 | 271 | 2.6 | 39.1 | 0.00 | 0.00 | 0.00 | 100 | 1012.0 |
| 20260509011040 | 82 | 320 | 2.6 | 37.4 | 0.00 | 0.00 | 0.00 | 100 | 1012.0 |
| 20260509010020 | 82 | 300 | 2.6 | 40.8 | 0.00 | 0.00 | 0.00 | 100 | 1012.0 |
| 20260509005016 | 82 | 24 | 1.7 | 29.5 | 0.00 | 0.00 | 0.00 | 100 | 1011.9 |
| 20260509004017 | 81 | 327 | 1.7 | 33.9 | 0.00 | 0.00 | 0.00 | 100 | 1011.9 |
| 20260509003018 | 81 | 346 | 1.7 | 35.6 | 0.00 | 0.00 | 0.00 | 100 | 1011.7 |
| 20260509002018 | 80 | 351 | 1.7 | 35.6 | 0.00 | 0.00 | 0.00 | 100 | 1011.6 |
| 20260509001021 | 80 | 347 | 2.6 | 38.2 | 0.00 | 0.00 | 0.00 | 100 | 1011.4 |
| 20260509000020 | 80 | 338 | 2.6 | 39.1 | 0.00 | 0.00 | 0.00 | 100 | 1011.1 |
| 20260508235016 | 80 | 329 | 2.6 | 37.4 | 0.00 | 0.00 | 0.00 | 100 | 1010.9 |
| 20260508234038 | 80 | 309 | 1.7 | 36.5 | 0.00 | 0.00 | 0.00 | 100 | 1010.8 |
| 20260508233018 | 79 | 333 | 2.6 | 38.2 | 0.00 | 0.00 | 0.00 | 100 | 1010.7 |
| 20260508232020 | 79 | 343 | 1.7 | 34.8 | 0.00 | 0.00 | 0.00 | 100 | 1010.6 |
| 20260508231020 | 79 | 340 | 1.7 | 35.6 | 0.00 | 0.00 | 0.00 | 100 | 1010.4 |
| 20260508230020 | 79 | 343 | 1.7 | 34.8 | 0.00 | 0.00 | 0.00 | 100 | 1010.1 |
| 20260508225016 | 80 | 340 | 1.7 | 35.6 | 0.00 | 0.00 | 0.00 | 100 | 1009.9 |
| 20260508224017 | 80 | 337 | 2.6 | 38.2 | 0.00 | 0.00 | 0.00 | 100 | 1009.8 |
| 20260508223018 | 80 | 342 | 2.6 | 38.2 | 0.00 | 0.00 | 0.00 | 100 | 1009.7 |
| 20260508222019 | 80 | 344 | 2.6 | 36.5 | 0.00 | 0.00 | 0.00 | 100 | 1009.6 |
| 20260508221020 | 80 | 341 | 2.6 | 37.4 | 0.00 | 0.00 | 0.00 | 100 | 1009.6 |
| 20260508220021 | 80 | 339 | 2.6 | 40.8 | 0.00 | 0.00 | 0.00 | 100 | 1009.5 |
| 20260508215016 | 80 | 342 | 2.6 | 38.2 | 0.00 | 0.00 | 0.00 | 100 | 1009.5 |
| 20260508214017 | 80 | 331 | 1.7 | 24.3 | 0.00 | 0.00 | 0.00 | 100 | 1009.4 |
| 20260508213020 | 80 | 341 | 1.7 | 26.1 | 0.00 | 0.00 | 0.00 | 100 | 1009.4 |
| 20260508212019 | 80 | 342 | 1.7 | 30.4 | 0.00 | 0.00 | 0.00 | 100 | 1009.3 |
| 20260508211020 | 80 | 340 | 2.6 | 37.4 | 0.00 | 0.00 | 0.00 | 100 | 1009.4 |
| 20260508210020 | 80 | 345 | 2.6 | 36.5 | 0.00 | 0.00 | 0.00 | 100 | 1009.5 |
| 20260508205016 | 80 | 328 | 2.6 | 41.7 | 0.00 | 0.00 | 0.00 | 100 | 1009.4 |
| 20260508204017 | 80 | 339 | 2.6 | 37.4 | 0.00 | 0.00 | 0.00 | 100 | 1009.5 |
| 20260508203018 | 80 | 343 | 2.6 | 36.5 | 0.00 | 0.00 | 0.00 | 100 | 1009.6 |
| 20260508202021 | 80 | 344 | 2.6 | 38.2 | 0.00 | 0.00 | 0.00 | 100 | 1009.7 |
| 20260508201100 | 80 | 345 | 1.7 | 36.5 | 0.00 | 0.00 | 0.00 | 100 | 1009.8 |
| 20260508200021 | 80 | 337 | 1.7 | 33.0 | 0.00 | 0.00 | 0.00 | 100 | 1009.8 |
| 20260508195016 | 80 | 336 | 1.7 | 34.8 | 0.00 | 0.00 | 0.00 | 100 | 1009.8 |
| 20260508194018 | 80 | 341 | 2.6 | 36.5 | 0.00 | 0.00 | 0.00 | 100 | 1009.7 |
| 20260508193018 | 81 | 341 | 2.6 | 37.4 | 0.00 | 0.00 | 0.00 | 100 | 1009.6 |
| 20260508192018 | 80 | 342 | 2.6 | 36.5 | 0.00 | 0.00 | 0.00 | 100 | 1009.6 |